G4MDH Weather Reports


Display with metric or nautical units.
time (UTC)temp
F
wind
direction
speed
MPH
gust
MPH
rain 1hr
in
rain 24hr
in
rain mn
in
humidity
%
barometer
mb
20260501215322 53 290 0.0 1.0 0.00 0.00 0.00 88 1019.6
20260501214844 53 290 0.0 1.0 0.00 0.00 0.00 88 1019.7
20260501214332 53 290 0.0 1.0 0.00 0.00 0.00 88 1019.6
20260501213814 54 290 0.0 1.0 0.00 0.00 0.00 88 1019.6
20260501212912 54 309 0.0 0.0 0.00 0.00 0.00 88 1019.6
20260501212336 54 309 0.0 0.0 0.00 0.00 0.00 87 1019.6
20260501211818 54 310 0.0 1.0 0.00 0.00 0.00 87 1019.5
20260501211320 54 296 0.0 0.0 0.00 0.00 0.00 86 1019.4
20260501210822 54 297 0.0 0.0 0.00 0.00 0.00 86 1019.3
20260501210332 55 296 0.0 1.0 0.00 0.00 0.00 86 1019.4
20260501205812 55 296 0.0 1.0 0.00 0.00 0.00 86 1019.5
20260501205320 55 301 0.0 1.0 0.00 0.00 0.00 85 1019.5
20260501204821 55 302 0.0 1.0 0.00 0.00 0.00 85 1019.5
20260501204323 55 311 0.0 1.0 0.00 0.00 0.00 85 1019.5
20260501203832 55 311 0.0 1.0 0.00 0.00 0.00 85 1019.6
20260501203315 56 18 0.0 1.0 0.00 0.00 0.00 84 1019.5
20260501202816 56 18 0.0 2.0 0.00 0.00 0.00 84 1019.5
20260501202318 56 323 0.0 2.0 0.00 0.00 0.00 84 1019.6
20260501201827 56 345 0.0 2.0 0.00 0.00 0.00 84 1019.6
20260501201329 56 295 0.0 1.0 0.00 0.00 0.00 84 1019.6
20260501200811 57 347 0.0 1.0 0.00 0.00 0.00 83 1019.4
20260501200321 57 341 0.0 1.0 0.00 0.00 0.00 83 1019.5
20260501195330 57 347 0.0 2.0 0.00 0.00 0.00 83 1019.4
20260501194811 57 1 0.0 1.0 0.00 0.00 0.00 82 1019.3
20260501194321 58 353 0.0 1.0 0.00 0.00 0.00 82 1019.2
20260501193838 58 320 0.0 1.0 0.00 0.00 0.00 81 1019.2
20260501193523 58 340 0.0 1.0 0.00 0.00 0.00 81 1019.2
20260501192847 58 323 0.0 3.0 0.00 0.00 0.00 81 1019.2
20260501192331 59 1 0.0 3.0 0.00 0.00 0.00 80 1019.2
20260501191900 59 326 0.0 2.0 0.00 0.00 0.00 80 1019.2
20260501191411 59 66 0.0 2.0 0.00 0.00 0.00 80 1019.2
20260501191337 59 66 0.0 2.0 0.00 0.00 0.00 80 1019.2
20260501190837 59 357 0.0 5.0 0.00 0.00 0.00 80 1019.1
20260501190338 60 347 1.0 2.0 0.00 0.00 0.00 80 1019.1
20260501185812 60 323 0.0 2.0 0.00 0.00 0.00 80 1019.1
20260501185318 60 33 0.0 2.0 0.00 0.00 0.00 79 1019.1
20260501184826 60 305 0.0 2.0 0.00 0.00 0.00 79 1019.1
20260501184348 60 314 0.0 3.0 0.00 0.00 0.00 79 1019.1
20260501183836 60 311 0.0 2.0 0.00 0.00 0.00 78 1019.1
20260501183317 61 344 0.0 3.0 0.00 0.00 0.00 78 1019.1
20260501182929 61 23 1.0 3.0 0.00 0.00 0.00 77 1019.1